Weather in Hithadhoo

Maldives     0°39′31″N   73°06′52″E
temp.,
°C
wind,
m/s
gust,
m/s
humid.,
%
clouds,
%
prec.,
mm/h
press.,
hPa
HPBL,
m
10 august, wed
wed1023:00+28ese117685 0.1 1009394
02:00+27e227985 0.8 1007464
05:00+27ene347919 1.4 1007511
08:00+28ene447631 0.6 1009702
11:00+28ene337435 0.6 1009752
14:00+28ne33728 0.0 1007750
17:00+28ene337037 0.0 1007804
20:00+28ene327196 0.0 1009769
11 august, thu
thu1123:00+28e33719 0.0 1010818
02:00+28e337297 0.0 1008804
05:00+28e337237 0.0 1008770
08:00+28e44729 0.0 1010795
11:00+28e447213 0.0 1009753
14:00+28e44716 0.0 1008858
17:00+28e447210 0.0 1009884
20:00+28ese447329 0.0 1010714
12 august, fri
fri1223:00+28ese55745 0.1 1011783
02:00+28e5575100 0.6 1009836
05:00+28e667586 1.4 1009836
08:00+28ese557515 0.4 1011840
11:00+28ese557741 0.7 1010790
14:00+28ese557751 0.1 1008782
17:00+28ese567729 0.3 1008770
20:00+28ese667921 2.5 1010612
13 august, sat
sat1323:00+28se677923 5.6 1011660
02:00+27ese6679100 3.3 1009532
05:00+27ese667926 7.4 1009496
08:00+28ese667746 1.1 1010650
11:00+28ese667664 2.2 1010848
14:00+28ese667666 1.1 1008805
17:00+28ese5675100 1.1 1008878
20:00+28ese567690 0.3 1010780
14 august, sun
sun1423:00+28e6676100 1.0 1010799
02:00+28ese557582 0.1 1008808
05:00+28ese55767 0.3 1009778
08:00+28ese667773 0.4 1011831
11:00+28ese5675100 0.9 1011817
14:00+28ese4574100 0.1 1009832
17:00+28e557573 0.4 1009734
20:00+28e4576100 1.5 1010703